TimeHDT,TemperatureF,Dew PointF,Humidity,Sea Level PressureIn,VisibilityMPH,Wind Direction,Wind SpeedMPH,Gust SpeedMPH,PrecipitationIn,Events,Conditions,WindDirDegrees,DateUTC
12:16 AM,35.6,30.2,81,29.89,-9999.0,WSW,12.7,33.4,N/A,,Overcast,250,2013-03-23 09:16:00
12:36 AM,35.6,30.2,81,29.88,-9999.0,West,11.5,-,N/A,,Mostly Cloudy,270,2013-03-23 09:36:00
12:56 AM,35.6,28.4,75,29.89,-9999.0,West,16.1,23.0,N/A,,Mostly Cloudy,270,2013-03-23 09:56:00
1:36 AM,37.4,28.4,70,29.89,-9999.0,WNW,13.8,21.9,N/A,,Overcast,300,2013-03-23 10:36:00
1:56 AM,37.4,28.4,70,29.89,-9999.0,West,18.4,21.9,N/A,,Overcast,270,2013-03-23 10:56:00
2:16 AM,37.4,28.4,70,29.90,-9999.0,West,15.0,21.9,N/A,,Overcast,270,2013-03-23 11:16:00
2:36 AM,37.4,28.4,70,29.90,-9999.0,West,15.0,23.0,N/A,,Overcast,270,2013-03-23 11:36:00
2:56 AM,37.4,28.4,70,29.90,-9999.0,West,17.3,26.5,N/A,,Overcast,270,2013-03-23 11:56:00
3:16 AM,37.4,26.6,65,29.90,-9999.0,West,20.7,26.5,N/A,,Mostly Cloudy,260,2013-03-23 12:16:00
3:36 AM,37.4,28.4,70,29.91,-9999.0,West,19.6,33.4,N/A,,Overcast,270,2013-03-23 12:36:00
3:56 AM,37.4,28.4,70,29.91,-9999.0,West,16.1,27.6,N/A,,Mostly Cloudy,260,2013-03-23 12:56:00
4:16 AM,37.4,28.4,70,29.92,-9999.0,West,21.9,31.1,N/A,,Overcast,260,2013-03-23 13:16:00
4:36 AM,35.6,30.2,81,29.92,-9999.0,West,28.8,39.1,N/A,,Overcast,270,2013-03-23 13:36:00
4:56 AM,35.6,30.2,81,29.92,-9999.0,West,23.0,33.4,N/A,,Overcast,260,2013-03-23 13:56:00
5:16 AM,37.4,30.2,75,29.92,-9999.0,West,23.0,29.9,N/A,,Overcast,260,2013-03-23 14:16:00
5:36 AM,37.4,30.2,75,29.91,-9999.0,West,25.3,36.8,N/A,,Overcast,270,2013-03-23 14:36:00
5:56 AM,37.4,28.4,70,29.92,-9999.0,West,26.5,34.5,N/A,,Overcast,260,2013-03-23 14:56:00
6:16 AM,37.4,28.4,70,29.93,-9999.0,West,25.3,35.7,N/A,,Overcast,260,2013-03-23 15:16:00
6:36 AM,37.4,28.4,70,29.93,-9999.0,West,21.9,34.5,N/A,,Overcast,260,2013-03-23 15:36:00
6:56 AM,39.2,28.4,65,29.93,-9999.0,West,28.8,40.3,N/A,,Overcast,270,2013-03-23 15:56:00
7:16 AM,39.2,28.4,65,29.93,-9999.0,West,29.9,40.3,N/A,,Overcast,280,2013-03-23 16:16:00
7:36 AM,37.4,30.2,75,29.94,-9999.0,West,28.8,46.0,N/A,,Overcast,270,2013-03-23 16:36:00
7:56 AM,37.4,30.2,75,29.94,-9999.0,West,23.0,35.7,N/A,,Overcast,260,2013-03-23 16:56:00
8:16 AM,39.2,30.2,70,29.94,-9999.0,West,29.9,42.6,N/A,,Overcast,280,2013-03-23 17:16:00
8:36 AM,37.4,32.0,81,29.94,-9999.0,West,27.6,39.1,N/A,,Overcast,270,2013-03-23 17:36:00
8:56 AM,37.4,33.8,87,29.94,-9999.0,West,31.1,42.6,N/A,,Unknown,270,2013-03-23 17:56:00
9:16 AM,37.4,33.8,87,29.95,-9999.0,West,29.9,43.7,N/A,,Unknown,270,2013-03-23 18:16:00
9:36 AM,37.4,33.8,87,29.96,-9999.0,West,27.6,38.0,N/A,,Unknown,280,2013-03-23 18:36:00
9:56 AM,37.4,33.8,87,29.97,-9999.0,West,24.2,34.5,N/A,,Unknown,280,2013-03-23 18:56:00
10:16 AM,37.4,33.8,87,29.98,-9999.0,West,27.6,35.7,N/A,,Unknown,280,2013-03-23 19:16:00
10:36 AM,37.4,33.8,87,30.00,-9999.0,WNW,26.5,33.4,N/A,,Unknown,290,2013-03-23 19:36:00
10:56 AM,37.4,33.8,87,30.01,-9999.0,WNW,25.3,32.2,N/A,,Unknown,290,2013-03-23 19:56:00
11:16 AM,39.2,33.8,81,30.02,-9999.0,WNW,23.0,34.5,N/A,,Overcast,290,2013-03-23 20:16:00
11:36 AM,39.2,33.8,81,30.03,-9999.0,WNW,26.5,34.5,N/A,,Overcast,290,2013-03-23 20:36:00
11:56 AM,39.2,33.8,81,30.04,-9999.0,WNW,25.3,33.4,N/A,,Mostly Cloudy,290,2013-03-23 20:56:00
12:16 PM,37.4,33.8,87,30.04,-9999.0,WNW,25.3,38.0,N/A,,Unknown,290,2013-03-23 21:16:00
12:36 PM,39.2,33.8,81,30.05,-9999.0,WNW,25.3,34.5,N/A,,Overcast,300,2013-03-23 21:36:00
12:56 PM,39.2,32.0,75,30.06,-9999.0,WNW,27.6,34.5,N/A,,Overcast,300,2013-03-23 21:56:00
1:16 PM,39.2,30.2,70,30.07,-9999.0,WNW,26.5,34.5,N/A,,Overcast,300,2013-03-23 22:16:00
1:36 PM,39.2,30.2,70,30.09,-9999.0,NW,23.0,31.1,N/A,,Overcast,310,2013-03-23 22:36:00
1:56 PM,39.2,32.0,75,30.09,-9999.0,WNW,24.2,29.9,N/A,,Overcast,300,2013-03-23 22:56:00
2:16 PM,39.2,30.2,70,30.10,-9999.0,WNW,20.7,31.1,N/A,,Overcast,300,2013-03-23 23:16:00
2:36 PM,39.2,30.2,70,30.11,-9999.0,WNW,23.0,29.9,N/A,,Overcast,300,2013-03-23 23:36:00
2:56 PM,39.2,32.0,75,30.12,-9999.0,WNW,24.2,34.5,N/A,,Overcast,290,2013-03-23 23:56:00
3:16 PM,39.2,30.2,70,30.12,-9999.0,WNW,24.2,29.9,N/A,,Overcast,300,2013-03-24 00:16:00
3:36 PM,39.2,30.2,70,30.12,-9999.0,WNW,26.5,32.2,N/A,,Overcast,290,2013-03-24 00:36:00
3:56 PM,39.2,30.2,70,30.13,-9999.0,WNW,23.0,33.4,N/A,,Overcast,290,2013-03-24 00:56:00
4:16 PM,39.2,32.0,75,30.14,-9999.0,WNW,23.0,33.4,N/A,,Mostly Cloudy,290,2013-03-24 01:16:00
4:36 PM,39.2,30.2,70,30.14,-9999.0,WNW,25.3,33.4,N/A,,Overcast,290,2013-03-24 01:36:00
4:56 PM,39.2,30.2,70,30.15,-9999.0,WNW,25.3,33.4,N/A,,Mostly Cloudy,290,2013-03-24 01:56:00
5:16 PM,37.4,30.2,75,30.15,-9999.0,WNW,23.0,36.8,N/A,,Overcast,290,2013-03-24 02:16:00
5:36 PM,37.4,26.6,65,30.15,-9999.0,WNW,25.3,33.4,N/A,,Overcast,300,2013-03-24 02:36:00
5:56 PM,37.4,26.6,65,30.15,-9999.0,WNW,24.2,31.1,N/A,,Overcast,300,2013-03-24 02:56:00
6:16 PM,37.4,28.4,70,30.15,-9999.0,WNW,26.5,32.2,N/A,,Overcast,300,2013-03-24 03:16:00
6:36 PM,37.4,30.2,75,30.16,-9999.0,NW,24.2,31.1,N/A,,Overcast,310,2013-03-24 03:36:00
6:56 PM,37.4,30.2,75,30.16,-9999.0,WNW,24.2,31.1,N/A,,Overcast,300,2013-03-24 03:56:00
7:16 PM,37.4,28.4,70,30.17,-9999.0,NW,20.7,29.9,N/A,,Overcast,310,2013-03-24 04:16:00
7:36 PM,37.4,28.4,70,30.18,-9999.0,WNW,18.4,24.2,N/A,,Overcast,300,2013-03-24 04:36:00
7:56 PM,35.6,28.4,75,30.18,-9999.0,NW,23.0,27.6,N/A,,Mostly Cloudy,310,2013-03-24 04:56:00
8:16 PM,35.6,28.4,75,30.18,-9999.0,NW,18.4,23.0,N/A,,Overcast,310,2013-03-24 05:16:00
8:36 PM,35.6,28.4,75,30.20,-9999.0,WNW,18.4,23.0,N/A,,Mostly Cloudy,300,2013-03-24 05:36:00
8:56 PM,35.6,28.4,75,30.20,-9999.0,NW,19.6,24.2,N/A,,Mostly Cloudy,310,2013-03-24 05:56:00
9:16 PM,35.6,28.4,75,30.21,-9999.0,NW,18.4,24.2,N/A,,Mostly Cloudy,310,2013-03-24 06:16:00
9:36 PM,35.6,26.6,70,30.21,-9999.0,NW,19.6,27.6,N/A,,Mostly Cloudy,310,2013-03-24 06:36:00
9:56 PM,35.6,28.4,75,30.22,-9999.0,WNW,16.1,23.0,N/A,,Overcast,300,2013-03-24 06:56:00
10:16 PM,35.6,24.8,65,30.23,-9999.0,NW,21.9,29.9,N/A,,Overcast,310,2013-03-24 07:16:00
10:36 PM,35.6,26.6,70,30.24,-9999.0,NW,15.0,-,N/A,,Overcast,310,2013-03-24 07:36:00
10:56 PM,35.6,26.6,70,30.25,-9999.0,NW,17.3,21.9,N/A,,Overcast,310,2013-03-24 07:56:00
11:16 PM,35.6,24.8,65,30.26,-9999.0,NW,13.8,23.0,N/A,,Overcast,310,2013-03-24 08:16:00
11:36 PM,35.6,26.6,70,30.26,-9999.0,NW,13.8,19.6,N/A,,Overcast,310,2013-03-24 08:36:00
11:56 PM,35.6,24.8,65,30.26,-9999.0,NW,13.8,20.7,N/A,,Overcast,310,2013-03-24 08:56:00